Погода Стенде

Погода Стенде : погода сейчас, прогноз погоды и архив. Всё, что Вы хотите узнать о погоде Стенде!

Поиск расширенной информации на нашем сайте:

Другие новости

Новости СМИ2

Главная страница сайта

Новости сайта

03.07.2017

Напоминаем, что на нашем специализированном сайте Метеоцентр.Азия вы можете получить высокодетализированные автоматические прогнозы погоды по пунктам России, СНГ и мира в авиационном формате (включающие направление и скорость ветра, видимость, явления погоды, количество и форму облачности, нижнюю и верхнюю границу облачности).


Погода Стенде - сегодня

Время (UTC), дата Ветер
(°,м/с) 
Видим.   Явления Облачность Т
(°С)
Тd
(°С)
f(%) Тe
(°С)
Pmin
(гПа)
dP
(гПа)
Po
(мм)
O2
(г/м3)
Тmin Tmax R s Состояние
почвы
15 06.02.18 200 (Ю) 3-3  н/о    н/о 
-4.6 -5.8 91 -7  1010.5  -0.8  750  308           
18 06.02.18 260 (З) 2-4  н/о    н/о 
-3.7 -4.6 93 -5  1011  0.6  751  307           
21 06.02.18 220 (ЮЗ) 3-5  н/о    н/о 
-3.8 -4.8 93 -6  1011.8  0.8  751  307           
00 07.02.18 250 (З) 3-6  н/о    н/о 
-4 -5.2 91 -6  1013.3  1.5  752  308           
03 07.02.18 230 (ЮЗ) 3-5  н/о    н/о 
-4.1 -6.4 84 -6  1014.2  0.9  753  309           
06 07.02.18 200 (Ю) 3-4  н/о    н/о 
-5.6 -7.2 88 -8  1015.4  1.1  754  311           
09 07.02.18 210 (ЮЗ) 4-6  н/о    н/о 
-3.5 -5.8 84 -6  1016.7  1.4  755  309           
12 07.02.18 230 (ЮЗ) 3-6  н/о    н/о 
-1.9 -4.2 84 -4  1017.6  756  307           
15 07.02.18 210 (ЮЗ) 4-6  н/о    н/о 
-1.7 -3.9 85 -4  1018.4  0.8  756  307           
18 07.02.18 200 (Ю) 3-4  н/о    н/о 
-2.6 -4.2 89 -5  1019.6  1.1  757  308           
21 07.02.18 170 (Ю) 4-5  н/о    н/о 
-6 -6.8 94 -9  1020.3  0.6  757  313           
00 08.02.18 190 (Ю) 4-5  н/о    н/о 
-5.3 -8.8 76 -9  1020.9  0.6  758  312           
03 08.02.18 180 (Ю) 5-6  н/о    н/о 
-8.7 -12.1 76 -13  1020.5  -0.6  758  316           
06 08.02.18 140 (ЮВ) 3-4  н/о    н/о 
-11.9 -13.6 87 -15  1021  0.4  758  321           
09 08.02.18 140 (ЮВ) 4-5  н/о    н/о 
-9.8 -12.5 81 -14  1021.3  0.4  758  318           
15 08.02.18 140 (ЮВ) 4-5  н/о    н/о 
-7 -8.8 87 -11  1020.6  -0.4  758  314           
18 08.02.18 140 (ЮВ) 3-4  н/о    н/о 
-6.3 -7.8 89 -9  1020.9  0.2  758  313           
21 08.02.18 150 (ЮВ) 3-4  н/о    н/о 
-5.7 -7.1 90 -8  1021.2  0.3  758  313           
00 09.02.18 170 (Ю) 2-3  н/о    н/о 
-5.2 -6.7 89 -7  1021.4  0.2  758  312           
03 09.02.18 140 (ЮВ) 2-2  н/о    н/о 
-5.2 -6.4 91 -7  1021.6  0.2  758  312           
06 09.02.18 130 (ЮВ) 3-4  н/о    н/о 
-5.6 -6 97 -8  1021.9  0.3  759  313           
09 09.02.18 170 (Ю) 1-2  н/о    н/о 
-4.6 -5 97 -4  1022.4  0.5  759  312           
15 09.02.18 140 (ЮВ) 2-4  н/о    н/о 
-4.5 -5 96 -6  1022.5  0.3  759  312           
18 09.02.18 090 (В) 2-4  н/о    н/о 
-4 -4.5 96 -5  1022.6  0.1  759  311           
09 22.02.18 тихо () -1  н/о    н/о 
-7.9 -11.3 76 -8  1031.9  0.5  766  319           
Время (UTC), дата Ветер
(°,м/с) 
Видим.   Явления Облачность Т
(°С)
Тd
(°С)
f(%) Тe
(°С)
Pmin
(гПа)
dP
(гПа)
Po
(мм)
O2
(г/м3)
Тmin Tmax R s Состояние
почвы

Для получения пояснительной информации подведите курсор к названию столбца.

ПОГОДА Стенде - архив

Всё, что Вы хотите узнать о погоде Стенде - удобно и подробно!

Выберите нужную дату (начиная с 1 января 2015* года) и нажмите кнопку "Найти".
Будут отображены архивные сводки погоды по пункту Стенде, начиная с указанной даты.


Отображать данные в формате CSV (для использования в таблицах Excel)


Внимание! Наш архив погоды предназначен исключительно для личного некоммерческого использования в познавательных целях. Если Вам необходимы официальные справки о состоянии погоды (для производственных, юридических, коммерческих и т.п. целей), обращайтесь в органы Росгидромета.

*Примечание: данная дата относится к архиву по метеостанциям СССР (Россия, СНГ, Балтия).
Архив по метеостанциям Зарубежной Европы и Азии (кроме Китая) хранится 10 дней, по другим регионам земного шара (Китай, Африка, Америка, Австралия, Океания) - 1 день.

Стенде - район местоположения метеостанции


Название, широта, долгота, высота метеостанции:
Стенде 57.2°ш. 22.6°д. 79 м над ур. моря [Латвия]

Дополнительная информация

В oтличие oт бoльшинства пoгoдных сайтoв мы публикуем пoдрoбную метеoинфoрмацию в детальнoм прoфессиoнальнoм фoрмате.

Характеристики температуры и влажнoсти вoздуха измеряются на высoте 2 м в тени вдали oт зданий и деревьев.
Скoрoсть ветра измеряется на высoте 10 м (на урoвне рoста челoвека скoрoсть ветра ниже в 1.5-2 раза). Если метеoстанция нахoдится в гoрoде или в лесу, тo скoрoсть ветра занижена на 2-4 м/с пo сравнению с oткрытым местoм. Скoрoсть ветра над акватoриями крупных рек и oзёр, а также на вершинах хoлмoв на 2-5 м/с выше, чем в oбычных услoвиях.
Атмoсфернoе давление в разных тoчках местнoсти мoжет значительнo oтличаться oт давления на метеoстанции, в зависимoсти oт услoвий рельефа (при пoдъёме на 10 м давление пoнижается примернo на 1 мм рт.ст.).